SCP
0 0 0 0 0 0 0 0 0 0 0 0 0 0 0 0 0 0 0 0 0 0 0 0 0 1 0 0 0 0 0 0 0 0 0 0 0 0 0 0 0 0 0 0 0 0 0 0 0
0 0 0 0 0 0 0 0 0 0 0 0 0 0 0 0 0 0 0 0 0 0 0 0 0 1 0 0 0 0 0 0 0 0 0 0 0 0 0 0 0 0 0 0 0 0 0 0 0
0 0 0 0 0 0 0 0 0 0 0 0 0 0 0 0 0 0 0 0 0 0 0 0 1 1 0 0 0 0 0 0 0 0 0 0 0 0 0 0 0 0 0 0 0 0 0 0 0
0 0 0 0 0 0 0 0 0 0 0 0 0 0 0 0 0 0 0 0 0 0 0 0 0 0 0 0 0 0 0 0 0 0 0 0 0 0 0 0 0 0 0 0 0 0 0 0 0
0 0 0 0 0 0 0 0 0 0 0 0 0 0 0 0 0 0 0 0 0 0 0 0 0 0 0 0 0 0 0 0 0 0 0 0 0 0 0 0 0 0 0 0 0 0 0 0 0
0 0 0 0 0 0 0 0 0 0 0 0 0 0 0 0 0 0 0 0 0 0 0 0 0 0 0 0 0 0 0 0 0 0 0 0 0 0 0 0 0 0 0 0 0 0 0 0 0
0 0 0 0 0 0 0 0 0 0 0 0 0 0 0 0 0 0 0 0 0 0 0 0 0 0 0 0 0 0 0 0 0 0 0 0 0 0 0 0 0 0 0 0 0 0 0 0 0
0 0 0 0 0 0 0 0 0 0 0 0 0 0 0 0 0 0 0 0 0 0 0 0 0 0 0 0 0 0 0 0 0 0 0 0 0 0 0 0 0 0 0 0 0 0 0 0 0
0 0 0 0 0 0 0 0 0 0 0 0 0 0 0 0 0 0 0 0 0 0 0 0 0 0 0 0 0 0 0 0 0 0 0 0 0 0 0 0 0 0 0 0 0 0 0 0 0
0 0 0 0 0 0 0 0 0 0 0 0 0 0 0 0 0 0 0 0 0 0 0 0 0 0 0 0 0 0 0 0 0 0 0 0 0 0 0 0 0 0 0 0 0 0 0 0 0
0 0 0 0 0 0 0 0 0 0 0 0 0 0 0 0 0 0 0 0 0 0 0 0 0 0 0 0 0 0 0 0 0 0 0 0 0 0 0 0 0 0 0 0 0 0 0 0 0
0 0 0 0 0 0 0 0 0 0 0 0 0 0 0 0 0 0 0 0 0 0 0 0 0 0 0 0 0 0 0 0 0 0 0 0 0 0 0 0 0 0 0 0 0 0 0 0 0
0 0 0 0 0 0 0 0 0 0 0 0 0 0 0 0 0 0 0 0 0 0 0 0 0 0 0 0 0 0 0 0 0 0 0 0 0 0 0 0 0 0 0 0 0 0 0 0 0
0 0 0 0 0 0 0 0 0 0 0 0 0 0 0 0 0 0 0 0 0 0 0 0 0 0 0 0 0 0 0 0 0 0 0 0 0 0 0 0 0 0 0 0 0 0 0 0 0
0 0 0 0 0 0 0 0 0 0 0 0 0 0 0 0 0 0 0 0 0 0 0 0 0 0 0 0 0 0 0 0 0 0 0 0 0 0 0 0 0 0 0 0 0 0 0 0 0
0 0 0 0 0 0 0 0 0 0 0 0 0 0 0 0 0 0 0 0 0 0 0 0 0 0 0 0 0 0 0 0 0 0 0 0 0 0 0 0 0 0 0 0 0 0 0 0 0
0 0 0 0 0 0 0 0 0 0 0 0 0 0 0 0 0 0 0 0 0 0 0 0 0 0 0 0 0 0 0 0 0 0 0 0 0 0 0 0 0 0 0 0 0 0 0 0 0
0 0 0 0 0 0 0 0 0 0 0 0 0 0 0 0 0 0 0 0 0 0 0 0 0 0 0 0 0 0 0 0 0 0 0 0 0 0 0 0 0 0 0 0 0 0 0 0 0
0 0 0 0 0 0 0 0 0 0 0 0 0 0 0 0 0 0 0 0 0 0 0 0 0 0 0 0 0 0 0 0 0 0 0 0 0 0 0 0 0 0 0 0 0 0 0 0 0
0 0 0 0 0 0 0 0 0 0 0 0 0 0 0 0 0 0 0 0 0 0 0 0 0 0 0 0 0 0 0 0 0 0 0 0 0 0 0 0 0 0 0 0 0 0 0 0 0
0 0 0 0 0 0 0 0 0 0 0 0 0 0 0 0 0 0 0 0 0 0 0 0 0 0 0 0 0 0 0 0 0 0 0 0 0 0 0 0 0 0 0 0 0 0 0 0 0
0 0 0 0 0 0 0 0 0 0 0 0 0 0 0 0 0 0 0 0 0 0 0 0 0 0 0 0 0 0 0 0 0 0 0 0 0 0 0 0 0 0 0 0 0 0 0 0 0
0 0 0 0 0 0 0 0 0 0 0 0 0 0 0 0 0 0 0 0 0 0 0 0 0 0 0 0 0 0 0 0 0 0 0 0 0 0 0 0 0 0 0 0 0 0 0 0 0
0 0 0 0 0 0 0 0 0 0 0 0 0 0 0 0 0 0 0 0 0 0 0 0 0 0 0 0 0 0 0 0 0 0 0 0 0 0 0 0 0 0 0 0 0 0 0 0 0
0 0 0 0 0 0 0 0 0 0 0 0 0 0 0 0 0 0 0 0 0 0 0 0 0 0 0 0 0 0 0 0 0 0 0 0 0 0 0 0 0 0 0 0 0 0 0 0 0
0 0 0 0 0 0 0 0 0 0 0 0 0 0 0 0 0 0 0 0 0 0 0 0 0 0 0 0 0 0 0 0 0 0 0 0 0 0 0 0 0 0 0 0 0 0 0 0 0
0 0 0 0 0 0 0 0 0 0 0 0 0 0 0 0 0 0 0 0 0 0 0 0 0 0 0 0 0 0 0 0 0 0 0 0 0 0 0 0 0 0 0 0 0 0 0 0 0
0 0 0 0 0 0 0 0 0 0 0 0 0 0 0 0 0 0 0 0 0 0 0 0 0 0 0 0 0 0 0 0 0 0 0 0 0 0 0 0 0 0 0 0 0 0 0 0 0
0 0 0 0 0 0 0 0 0 0 0 0 0 0 0 0 0 0 0 0 0 0 0 0 0 0 0 0 0 0 0 0 0 0 0 0 0 0 0 0 0 0 0 0 0 0 0 0 0
0 0 0 0 0 0 0 0 0 0 0 0 0 0 0 0 0 0 0 0 0 0 0 0 0 0 0 0 0 0 0 0 0 0 0 0 0 0 0 0 0 0 0 0 0 0 0 0 0
Wind_Speed
2 1 2 3 5 5 9 6 4 5 4 2 2 3 4 3 2 3 5 4 4 6 7 9 8 9 9 8 8 8 8 8 8 9 9 9 9 9 9 9 8 8 8 8 9 9 9 9 9
1 1 3 4 6 8 7 6 7 5 3 4 3 3 4 2 2 3 3 4 4 6 7 8 9 9 9 9 8 8 8 8 8 8 8 8 9 9 9 8 8 8 8 8 8 9 9 9 9
1 1 3 4 7 8 5 4 5 3 3 4 4 2 2 2 2 2 3 4 5 6 6 8 9 9 9 9 9 8 8 8 8 8 8 8 8 8 8 8 8 7 7 8 8 8 8 8 9
2 3 3 6 10 8 5 2 3 6 5 4 4 4 2 2 1 3 4 4 5 6 6 8 8 8 8 8 8 8 8 8 8 8 8 8 8 8 8 8 7 7 7 8 8 8 8 8 8
2 4 6 8 10 6 5 3 4 6 6 5 5 4 4 3 2 4 4 5 5 5 5 7 7 8 8 8 8 8 8 8 8 8 8 8 8 8 7 7 7 7 7 8 8 8 8 8 8
4 4 7 11 11 6 6 5 6 7 6 5 5 4 3 4 4 4 5 4 5 5 5 6 7 7 7 8 8 7 8 8 7 7 7 7 8 8 7 7 7 7 7 7 8 8 8 8 8
5 5 8 9 8 8 5 5 7 8 8 7 5 5 4 6 5 5 5 4 4 4 4 5 5 6 6 6 7 7 7 7 7 7 7 7 7 7 7 7 6 7 7 7 7 8 8 8 8
3 4 7 8 9 8 4 5 4 7 6 2 5 6 4 6 6 6 5 5 4 4 4 4 4 4 5 6 6 7 7 7 7 7 7 6 6 7 6 6 6 6 7 7 7 7 8 8 8
4 7 10 9 8 5 5 6 3 2 3 4 4 3 1 7 8 7 6 5 4 4 3 3 3 3 4 4 5 6 6 6 6 6 7 5 5 5 4 5 5 6 6 6 7 8 8 7 8
6 9 10 5 5 4 5 5 4 5 7 6 5 3 4 7 8 8 7 7 7 6 4 3 3 3 3 3 4 4 4 5 5 5 6 4 3 3 3 6 5 5 6 6 7 7 7 4 4
7 9 6 5 5 4 5 5 5 7 9 9 9 8 7 8 8 8 8 8 7 6 5 4 4 3 3 3 2 2 2 3 4 5 5 4 3 3 3 3 4 4 4 4 5 5 3 3 3
7 8 7 5 4 4 5 5 6 10 9 5 7 6 7 9 9 9 9 8 7 7 6 5 4 4 4 3 2 2 2 2 2 4 5 4 3 3 3 2 2 3 2 3 3 3 4 4 4
10 7 7 7 6 6 6 9 8 11 10 7 6 7 9 10 10 9 8 7 7 7 6 5 5 4 4 3 3 3 2 2 2 2 3 4 3 3 3 2 2 2 2 3 3 3 4 4 3
6 7 6 7 8 7 9 11 10 12 9 8 9 10 10 10 10 9 8 8 8 7 7 6 5 5 4 4 3 3 3 2 2 2 3 4 3 3 3 3 2 2 2 2 3 4 4 3 3
4 7 9 9 9 6 6 12 14 12 8 10 10 9 9 10 10 10 9 9 8 7 7 6 6 5 5 5 4 3 3 3 2 2 3 4 3 4 3 3 3 3 2 3 3 4 3 3 3
5 7 9 6 7 7 9 14 9 6 9 11 10 9 9 9 10 9 9 8 7 7 7 6 5 6 6 5 4 3 3 3 3 2 3 4 4 4 4 3 3 3 3 3 3 3 3 3 3
8 9 11 7 6 6 11 12 6 5 8 10 10 9 9 9 9 9 8 8 8 7 7 7 6 6 6 5 4 4 3 3 3 3 2 3 4 5 4 3 3 4 3 3 3 3 3 3 3
9 11 10 10 5 8 12 14 10 7 9 11 10 9 9 9 9 8 8 8 7 7 7 7 7 7 6 5 4 3 3 3 3 3 3 4 4 5 5 3 4 4 3 3 3 4 3 3 3
8 10 12 9 4 8 13 15 14 12 11 12 11 10 10 9 8 7 7 7 7 7 7 7 7 7 6 5 4 4 4 4 3 3 4 4 5 5 5 4 4 4 4 4 5 4 4 3 3
11 12 12 8 5 8 11 16 15 14 14 13 12 11 10 9 7 6 6 7 8 8 8 8 8 8 7 6 5 4 4 3 3 3 4 5 5 5 4 5 4 4 4 5 5 5 4 3 3
13 14 12 9 6 8 10 14 13 10 11 11 11 11 10 9 8 7 7 7 7 8 8 7 8 8 8 7 5 4 4 3 3 4 4 4 5 5 5 5 5 5 5 5 5 6 6 4 4
12 10 10 10 8 6 6 10 9 8 9 10 10 9 8 8 7 7 6 7 7 7 7 7 8 8 8 8 7 8 6 5 5 5 4 4 5 5 5 5 5 5 5 5 6 5 4 5 4
7 5 9 10 10 9 9 9 9 6 9 8 7 6 6 5 6 6 6 7 6 6 6 7 8 8 8 8 8 8 6 5 4 5 5 5 4 4 4 5 5 5 5 5 6 6 5 5 5
4 3 5 6 6 10 11 11 9 5 6 5 4 4 4 4 4 4 3 4 5 5 5 6 7 8 8 8 8 8 8 7 6 6 5 4 3 4 4 4 5 5 5 6 6 6 6 5 5
5 4 3 5 7 9 5 9 8 3 3 4 4 4 3 3 3 3 3 3 4 5 5 6 7 7 8 8 8 8 8 8 8 7 6 5 4 3 5 4 5 5 5 5 5 5 5 6 6
7 8 6 6 7 5 6 9 3 2 2 1 1 2 1 1 2 2 2 3 3 4 5 6 7 7 7 8 7 7 7 6 5 6 5 5 4 4 5 5 5 5 5 5 5 5 5 5 5
6 7 4 4 4 6 7 5 4 1 1 2 2 2 2 1 1 1 1 1 2 2 4 6 6 6 7 7 7 7 7 6 6 6 5 4 4 4 5 5 5 5 5 5 5 4 5 5 5
4 3 3 5 5 7 7 6 3 2 1 2 2 3 3 2 1 0 0 0 0 1 2 3 6 6 6 6 6 5 6 6 6 5 6 5 5 5 5 5 5 5 4 5 5 5 5 5 5
2 3 4 5 5 6 5 2 2 2 1 2 3 3 3 3 2 1 1 1 0 1 1 2 3 5 5 6 6 6 6 6 5 5 5 5 5 5 5 5 5 5 5 5 5 5 5 6 5
3 3 3 4 4 5 5 2 4 4 3 4 5 5 4 3 3 2 1 1 1 1 0 1 2 3 4 5 6 6 5 5 5 5 5 5 5 5 5 5 5 5 5 5 6 6 5 6 6
Wind_Direction
352 298 235 220 216 225 233 219 211 182 185 178 175 203 213 205 225 76 82 115 129 145 145 146 140 136 133 131 129 128 126 125 123 123 122 122 125 124 122 121 118 115 112 110 109 108 107 105 103
322 237 216 219 231 225 223 212 207 202 144 141 171 203 204 196 31 75 118 122 142 144 147 144 135 136 133 131 131 131 130 127 125 125 124 123 121 124 124 122 118 116 114 112 108 108 107 106 107
147 261 224 215 228 235 222 187 200 168 166 185 176 205 230 150 126 117 103 135 145 142 143 132 133 136 135 131 129 127 129 129 128 126 124 124 121 119 120 120 116 111 110 110 109 109 108 110 111
206 188 212 232 229 234 249 179 163 167 175 199 197 177 161 71 75 96 119 141 140 138 139 130 131 135 136 133 131 128 126 127 131 129 126 125 121 117 116 112 111 111 111 111 111 109 112 112 113
211 215 215 229 236 231 236 237 204 200 187 183 199 194 160 123 109 117 132 141 137 133 135 133 131 137 139 138 134 131 130 127 126 129 129 126 122 118 113 111 109 110 115 115 111 109 111 115 116
190 216 226 232 230 228 227 218 211 217 205 190 201 202 166 137 147 138 138 141 139 134 132 132 128 132 139 141 137 133 131 126 123 123 125 124 121 116 115 113 112 114 115 115 113 114 113 110 112
213 217 237 241 238 231 220 198 217 214 210 202 202 200 163 164 158 148 143 139 134 135 135 133 142 143 140 137 136 135 131 126 123 119 113 110 113 116 117 115 114 117 117 114 115 118 115 112 108
233 227 233 232 234 234 196 190 223 225 221 192 213 217 185 163 156 153 148 148 144 140 138 141 143 148 153 150 138 137 132 129 124 117 108 103 109 116 117 122 112 114 117 116 114 115 114 110 105
211 229 232 226 228 224 179 197 193 228 206 198 220 258 42 141 155 160 160 165 164 161 153 146 151 147 148 154 146 149 141 135 137 131 121 135 140 135 132 108 106 111 115 118 118 114 112 112 108
207 229 235 235 234 224 193 213 196 199 212 217 215 212 171 164 175 180 185 187 185 183 178 166 163 163 160 153 155 165 166 160 166 158 153 156 143 130 124 107 103 108 114 119 118 116 125 138 134
210 234 238 232 235 243 223 225 218 219 232 228 221 205 184 183 193 200 200 200 197 190 185 180 176 175 169 162 164 165 168 166 172 168 163 158 148 146 146 144 143 141 148 143 138 148 143 142 133
220 236 240 238 227 235 239 232 230 233 245 251 237 209 195 197 201 207 208 206 202 196 192 187 183 180 176 169 165 165 168 169 173 174 176 170 159 160 158 161 160 163 163 158 164 160 150 145 144
227 238 240 247 244 247 251 246 252 250 250 253 231 209 210 210 212 211 212 210 204 201 197 191 190 189 184 176 174 169 171 174 172 178 183 179 171 168 165 164 165 169 171 174 172 167 156 151 144
232 236 245 248 246 247 247 256 252 251 242 230 220 218 217 216 214 210 208 210 208 205 200 189 190 193 188 181 180 177 172 164 180 178 184 183 178 175 172 167 166 171 180 179 178 167 162 155 148
232 248 252 243 237 232 239 252 240 245 229 225 223 224 224 223 219 217 214 212 210 207 200 192 189 190 190 184 185 179 177 172 171 181 185 183 183 181 175 173 174 174 177 178 175 166 165 156 152
223 236 243 222 219 214 222 252 245 226 220 230 229 229 228 227 226 223 218 212 209 204 200 194 189 188 189 185 184 182 179 178 172 178 185 184 187 186 180 176 177 174 179 182 179 176 169 162 158
216 236 243 238 210 208 223 255 257 227 228 237 237 234 233 232 230 224 217 211 206 202 198 194 190 190 186 184 182 178 172 177 177 173 184 190 191 189 185 181 175 175 179 184 185 186 178 163 155
229 238 247 244 215 221 235 252 257 247 242 246 246 241 238 238 236 228 218 211 206 200 198 193 190 188 183 178 176 170 169 172 179 170 184 190 188 189 188 181 179 178 178 183 186 180 173 166 157
255 249 253 256 242 241 247 257 258 255 250 248 246 241 239 241 242 231 215 203 200 195 193 192 190 184 180 179 180 176 177 178 179 169 182 191 186 188 189 179 177 184 187 185 182 177 167 161 158
243 250 256 264 252 257 265 266 262 253 247 245 245 243 240 241 232 223 214 200 197 194 193 194 192 187 186 186 182 183 175 181 176 171 180 192 188 188 188 184 181 187 185 183 182 181 176 167 181
237 243 252 259 273 260 274 270 248 241 237 240 241 241 240 236 232 221 213 205 197 194 194 194 194 189 187 182 171 164 160 159 169 181 186 194 190 187 190 190 185 185 185 184 184 187 189 181 181
243 244 252 253 255 256 247 276 253 237 237 238 239 236 236 233 231 226 213 205 199 198 195 194 193 189 186 180 180 180 179 178 185 187 187 189 192 190 192 192 188 186 189 189 190 192 195 188 185
242 252 242 244 247 258 239 253 264 231 244 243 240 238 240 231 227 222 214 205 197 191 191 192 191 188 186 187 185 185 184 182 175 177 180 181 185 190 190 190 190 190 193 193 194 192 197 199 197
216 224 232 229 231 244 233 233 259 226 246 258 250 248 246 228 218 210 200 191 187 184 183 186 188 188 187 188 188 190 186 180 173 176 176 181 184 190 192 192 195 194 194 194 195 196 200 204 203
202 197 211 212 216 238 210 228 250 270 275 261 256 254 251 220 201 189 177 176 181 187 184 187 188 188 187 188 191 192 190 186 183 182 184 185 186 190 194 192 197 197 198 197 194 194 199 204 205
218 216 224 235 239 248 215 232 238 338 314 271 258 265 250 229 191 182 173 169 178 186 184 187 190 189 189 190 192 192 191 189 189 189 186 189 192 194 193 196 198 196 196 196 194 193 197 200 205
206 217 251 259 268 252 230 243 262 0 6 37 16 359 1 344 203 175 158 147 173 184 189 190 187 189 187 187 186 189 192 191 190 188 188 187 190 189 189 191 194 193 191 193 189 194 198 197 202
250 214 217 224 231 245 241 240 251 290 341 13 5 347 352 357 321 130 151 145 208 200 194 191 191 188 186 185 185 186 189 191 190 187 187 186 187 183 184 186 189 190 187 186 189 192 197 198 199
219 209 234 240 252 250 254 243 24 354 355 355 351 343 347 350 360 39 33 23 34 106 155 182 194 186 184 184 183 182 183 184 184 185 185 183 182 182 183 185 186 187 188 189 191 191 188 196 199
237 233 226 238 243 248 259 271 32 357 6 1 353 354 354 4 15 24 28 45 52 61 106 180 192 192 187 186 183 181 179 178 180 180 178 177 179 179 182 183 185 189 191 190 190 190 192 199 203